Weather History for Greenville Downtown, SC

Change the Weather History Date:

Friday, February 1, 2013

  Actual Average Record
Temperature  
Mean Temperature 37 °F -  
Max Temperature 44 °F 51 °F 70 °F (2002)
Min Temperature 30 °F 34 °F 21 °F (2000)
Degree Days  
Heating Degree Days 28    
Moisture  
Dew Point 12 °F    
Average Humidity 36    
Maximum Humidity 60    
Minimum Humidity 21    
Precipitation  
Precipitation 0.00 in - - ()
Sea Level Pressure  
Sea Level Pressure 30.21 in    
Wind  
Wind Speed 11 mph (NNE)    
Max Wind Speed 23 mph    
Max Gust Speed 33 mph    
Visibility 10 miles    
Events      
Averages and records for this station are not official NWS values.
T = Trace of Precipitation, MM = Missing Value Source: NWS Daily Summary

Daily Weather History Graph

Daily Weather History Graph

Search for Another Location

Airport:

Trip Planner

Search our weather history database for the weather conditions in past years. The results will help you decide how hot, cold, wet, or windy it might be!

Date:

Astronomy

Feb. 01, 2013 Rise Set
Actual Time 7:27 AM EST 5:58 PM EST
Civil Twilight 7:01 AM EST 6:25 PM EST
Nautical Twilight 6:31 AM EST 6:55 PM EST
Astronomical Twilight 6:01 AM EST 7:25 PM EST
Moon 11:47 PM EST (2/1) 10:16 AM EST (2/1)
Length of Visible Light 11h 24m
Length of Day
10h 31m
Waning Gibbous, 70% of the Moon is Illuminated
Feb 1
Waning Gibbous
Feb 3
Last Quarter
Feb 10
New
Feb 17
First Quarter
Feb 25
Full

Hourly Weather History & Observations

Time (EST) Temp. Windchill Dew Point Humidity Pressure Visibility Wind Dir Wind Speed Gust Speed Precip Events Conditions
1:53 AM 39.0 °F 30.3 °F 23.0 °F 53% 30.05 in 10.0 mi WSW 16.1 mph 21.9 mph N/A   Clear
2:53 AM 39.9 °F 31.8 °F 24.1 °F 53% 30.03 in 10.0 mi WSW 15.0 mph 26.5 mph N/A   Clear
3:53 AM 39.9 °F 32.1 °F 24.1 °F 53% 29.99 in 10.0 mi SW 13.8 mph 25.3 mph N/A   Clear
4:53 AM 39.9 °F 29.7 °F 24.1 °F 53% 29.97 in 10.0 mi SW 23.0 mph 33.4 mph N/A   Clear
5:53 AM 39.0 °F 31.8 °F 25.0 °F 57% 30.01 in 10.0 mi WSW 11.5 mph 20.7 mph N/A   Partly Cloudy
6:53 AM 37.9 °F 34.4 °F 25.0 °F 60% 30.07 in 10.0 mi WNW 4.6 mph - N/A   Partly Cloudy
7:53 AM 37.9 °F 29.6 °F 8.1 °F 29% 30.12 in 10.0 mi West 13.8 mph 24.2 mph N/A   Clear
8:53 AM 39.0 °F 33.4 °F 1.9 °F 21% 30.18 in 10.0 mi NW 8.1 mph - N/A   Clear
9:53 AM 39.0 °F 32.8 °F 7.0 °F 27% 30.22 in 10.0 mi NNE 9.2 mph - N/A   Clear
10:53 AM 39.9 °F 33.4 °F 3.9 °F 22% 30.25 in 10.0 mi ENE 10.4 mph - N/A   Clear
11:53 AM 41.0 °F 34.7 °F 9.0 °F 27% 30.26 in 10.0 mi NNE 10.4 mph - N/A   Clear
12:53 PM 41.0 °F 37.1 °F 8.1 °F 26% 30.25 in 10.0 mi Variable 5.8 mph - N/A   Clear
1:53 PM 44.1 °F 40.8 °F 7.0 °F 22% 30.25 in 10.0 mi NE 5.8 mph - N/A   Clear
2:53 PM 44.1 °F 38.6 °F 8.1 °F 23% 30.24 in 10.0 mi ENE 10.4 mph - N/A   Clear
3:53 PM 44.1 °F 39.0 °F 7.0 °F 22% 30.25 in 10.0 mi ENE 9.2 mph - N/A   Clear
4:53 PM 42.1 °F 37.1 °F 7.0 °F 24% 30.26 in 10.0 mi ENE 8.1 mph - N/A   Clear
5:53 PM 37.9 °F 32.7 °F 7.0 °F 28% 30.29 in 10.0 mi ENE 6.9 mph - N/A   Clear
6:53 PM 36.0 °F 29.6 °F 7.0 °F 30% 30.30 in 10.0 mi NNE 8.1 mph - N/A   Clear
7:53 PM 34.0 °F 31.0 °F 6.1 °F 31% 30.32 in 10.0 mi ENE 3.5 mph - N/A   Clear
8:53 PM 33.1 °F - 7.0 °F 34% 30.34 in 10.0 mi Calm Calm - N/A   Clear
9:53 PM 30.9 °F 25.2 °F 9.0 °F 40% 30.35 in 10.0 mi East 5.8 mph - N/A   Clear
10:53 PM 30.9 °F - 9.0 °F 40% 30.36 in 10.0 mi Calm Calm - N/A   Clear
11:53 PM 30.0 °F - 10.0 °F 43% 30.36 in 10.0 mi Calm Calm - N/A   Clear